15min,AgWx,beryljct,423,07JUL2020:00:00:00,63.2,12.89,63.5,63.2,63.7,65.2,61.1,23,29,21,0.472,25.5,28.6,23.6,5.502,7.0,174,16,9.7,0.00066,0.00090,71.5,71.7,10,0,.,.,13.47,0.00,0.00
15min,AgWx,beryljct,423,07JUL2020:00:15:00,63.3,12.87,63.9,64.0,64.8,66.2,63.2,22,24,19,0.468,24.6,25.8,22.3,4.823,6.2,185,10,8.9,0.00061,0.00085,71.1,71.7,10,0,.,.,13.46,0.00,0.00
15min,AgWx,beryljct,423,07JUL2020:00:30:00,63.1,12.86,63.3,64.2,63.9,65.0,62.7,22,25,19,0.434,24.3,27.0,22.2,5.524,5.2,176,10,7.4,0.00049,0.00071,70.8,71.6,10,0,.,.,13.47,0.00,0.00
15min,AgWx,beryljct,423,07JUL2020:00:45:00,62.9,12.86,62.6,61.8,62.8,64.3,61.1,24,29,21,0.494,25.5,28.6,23.0,5.919,5.8,163,6.5,6.8,0.00052,0.00074,70.4,71.4,10,0,.,.,13.46,0.00,0.00
15min,AgWx,beryljct,423,07JUL2020:01:00:00,62.3,12.86,67.9,67.0,63.9,67.0,61.6,23,27,18,0.405,25.0,27.8,22.0,4.604,5.1,170,8.5,6.5,0.00047,0.00068,70.1,71.4,10,0,.,.,13.47,0.00,0.00
15min,AgWx,beryljct,423,07JUL2020:01:15:00,62.3,12.86,62.1,64.6,66.0,67.2,64.6,20,25,17,0.515,23.4,27.8,20.7,6.16,4.6,176,14,7.0,0.00044,0.00066,69.8,71.2,10,0,.,.,13.46,0.00,0.00
15min,AgWx,beryljct,423,07JUL2020:01:30:00,61.7,12.84,63.4,59.9,58.0,64.2,55.8,37,43,24,0.511,31.6,33.9,26.3,5.941,5.1,153,17,7.8,0.00032,0.00046,69.5,71.2,10,0,.,.,13.47,0.00,0.00
15min,AgWx,beryljct,423,07JUL2020:01:45:00,62.3,12.84,67.0,66.7,67.5,70.9,60.3,17,28,15,0.395,21.6,26.7,20.1,5.765,7.1,189,9.7,11.1,0.00079,0.00108,69.3,71.0,10,0,.,.,13.46,0.00,0.00
15min,AgWx,beryljct,423,07JUL2020:02:00:00,63.1,12.83,67.1,66.6,66.8,67.2,66.4,17,19,16,0.363,20.9,23.2,19.1,6.489,5.9,177,9.2,7.1,0.00063,0.00090,69.0,70.9,10,0,.,.,13.46,0.00,0.00
15min,AgWx,beryljct,423,07JUL2020:02:15:00,63.5,12.83,64.0,65.3,66.4,67.0,65.3,17,18,16,0.366,19.6,21.1,18.4,5.568,5.9,175,5.7,7.2,0.00064,0.00091,68.7,70.8,10,0,.,.,13.47,0.00,0.00
15min,AgWx,beryljct,423,07JUL2020:02:30:00,63.2,12.82,63.4,63.4,63.2,65.2,62.4,20,22,18,0.414,22.0,23.3,20.0,5.875,6.1,191,4.2,7.5,0.00058,0.00082,68.4,70.7,10,0,.,.,13.47,0.00,0.00
15min,AgWx,beryljct,423,07JUL2020:02:45:00,62.7,12.81,61.6,62.9,64.3,65.7,62.9,19,21,16,0.414,20.7,23.0,18.6,4.691,5.9,180,6.8,6.9,0.00060,0.00084,68.2,70.6,10,0,.,.,13.46,0.00,0.00
15min,AgWx,beryljct,423,07JUL2020:03:00:00,62.0,12.81,58.8,63.5,61.6,64.7,59.5,22,27,17,0.472,22.6,26.1,18.6,2.17,4.9,185,9.5,6.1,0.00043,0.00063,67.9,70.5,10,0,.,.,13.47,0.00,0.00
15min,AgWx,beryljct,423,07JUL2020:03:15:00,61.2,12.79,58.9,59.0,61.9,63.8,58.0,21,31,17,0.430,21.6,28.0,17.7,4.801,4.4,173,6.6,5.8,0.00037,0.00056,67.7,70.4,10,0,.,.,13.46,0.00,0.00
15min,AgWx,beryljct,423,07JUL2020:03:30:00,59.9,12.79,54.6,53.6,57.1,59.9,53.1,30,41,22,0.528,25.6,30.0,21.1,4.012,3.8,171,6.7,5.3,0.00023,0.00036,67.5,70.2,10,0,.,.,13.47,0.00,0.00
15min,AgWx,beryljct,423,07JUL2020:03:45:00,58.0,12.79,55.5,54.6,53.7,54.9,52.5,36,41,31,0.446,27.6,30.0,24.4,4.012,3.8,182,8.5,4.8,0.00017,0.00027,67.2,70.1,10,0,.,.,13.47,0.00,0.00
15min,AgWx,beryljct,423,07JUL2020:04:00:00,56.4,12.77,58.2,57.6,55.7,57.6,54.2,28,36,20,0.328,22.9,27.8,17.1,4.012,4.4,173,4.9,5.2,0.00029,0.00043,67.0,70.0,10,0,.,.,13.47,0.00,0.00
15min,AgWx,beryljct,423,07JUL2020:04:15:00,55.5,12.77,54.5,55.2,55.7,57.9,53.5,26,34,20,0.380,21.2,25.7,16.9,5.48,4.9,177,5.4,6.6,0.00035,0.00051,66.8,69.9,10,0,.,.,13.47,0.00,0.00
15min,AgWx,beryljct,423,07JUL2020:04:30:00,54.9,12.75,55.6,56.5,56.3,57.5,54.4,24,27,21,0.333,19.8,22.1,17.3,5.875,5.1,178,6.8,6.1,0.00039,0.00055,66.6,69.8,10,0,.,.,13.47,0.00,0.00
15min,AgWx,beryljct,423,07JUL2020:04:45:00,54.4,12.76,56.0,52.7,53.4,56.5,50.7,28,37,22,0.382,21.0,25.6,16.9,5.941,5.6,185,4.9,7.5,0.00093,0.00164,66.3,69.6,10,0,.,.,13.47,0.00,0.00
15min,AgWx,beryljct,423,07JUL2020:05:00:00,53.9,12.75,55.9,56.4,54.2,56.4,51.8,27,37,22,0.346,21.0,26.3,17.5,5.174,5.0,187,4.1,5.7,0.00087,0.00152,66.1,69.5,10,0,.,.,13.47,0.00,0.00
15min,AgWx,beryljct,423,07JUL2020:05:15:00,53.6,12.76,52.7,53.3,53.7,56.4,51.0,32,44,23,0.467,24.1,29.7,18.2,4.779,4.4,195,4.4,5.3,0.00075,0.00130,65.8,69.4,10,2,.,.,13.47,0.00,0.00
15min,AgWx,beryljct,423,07JUL2020:05:30:00,53.5,12.75,54.5,55.0,57.3,59.8,53.2,23,35,18,0.413,19.5,26.1,15.6,5.831,4.1,178,14,6.2,0.00086,0.00147,65.6,69.3,9,9,.,.,13.47,0.00,0.00
15min,AgWx,beryljct,423,07JUL2020:05:45:00,53.3,12.76,50.9,50.8,51.6,54.9,49.2,44,55,29,0.621,30.2,33.8,23.1,3.573,4.1,162,9.0,6.8,0.00075,0.00118,65.4,69.2,10,38,.,.,13.47,0.00,0.00
15min,AgWx,beryljct,423,07JUL2020:06:00:00,53.3,12.76,53.2,52.5,51.7,53.3,50.6,43,50,36,0.570,30.1,32.9,26.7,3.025,3.8,173,7.9,5.0,0.00085,0.00126,65.1,69.0,10,72,.,.,13.47,0.00,0.00
15min,AgWx,beryljct,423,07JUL2020:06:15:00,54.4,12.73,53.7,54.1,54.4,56.3,52.5,38,48,31,0.588,29.3,34.1,25.8,2.916,3.6,149,6.9,4.5,0.00106,0.00152,64.9,68.9,11,111,.,.,13.47,0.00,0.00
15min,AgWx,beryljct,423,07JUL2020:06:30:00,56.0,12.74,57.0,56.7,55.2,56.7,53.5,47,53,41,0.808,35.1,39.5,31.2,2.148,1.7,136,0.3,3.2,0.00098,0.00121,64.7,68.8,10,153,.,.,13.47,0.00,0.00
15min,AgWx,beryljct,423,07JUL2020:06:45:00,58.6,12.77,62.7,62.6,62.0,65.1,56.7,27,55,16,0.510,26.9,40.6,17.2,2.828,3.0,124,10,4.1,0.00161,0.00215,64.5,68.7,10,200,.,.,13.47,0.00,0.00
15min,AgWx,beryljct,423,07JUL2020:07:00:00,61.4,12.76,62.4,62.4,62.4,62.9,61.9,43,59,26,1.128,39.2,47.8,27.0,1.315,1.8,109,11,2.7,0.00162,0.00194,64.3,68.5,10,249,.,.,13.47,0.00,0.00
15min,AgWx,beryljct,423,07JUL2020:07:15:00,64.2,12.79,65.0,66.1,63.4,66.3,61.9,59,68,43,1.187,48.6,51.9,42.6,2.916,2.1,85,7.5,4.4,0.00188,0.00218,64.1,68.4,10,298,.,.,13.47,0.00,0.00
15min,AgWx,beryljct,423,07JUL2020:07:30:00,67.0,12.8,67.6,67.9,67.3,68.8,65.7,44,57,31,1.007,44.6,50.1,36.9,3.595,4.3,89,13,6.1,0.00257,0.00322,64.0,68.3,10,349,.,.,13.47,0.00,0.00
15min,AgWx,beryljct,423,07JUL2020:07:45:00,69.5,12.83,73.6,73.7,70.2,73.7,67.9,36,49,21,0.646,41.7,49.5,30.9,6.818,4.1,116,45,7.0,0.00302,0.00376,63.9,68.2,10,400,.,.,13.47,0.00,0.00
15min,AgWx,beryljct,423,07JUL2020:08:00:00,72.4,12.92,75.4,74.9,74.3,74.9,73.6,20,24,16,0.537,30.3,35.0,26.0,7.366,8.7,175,12,14.0,0.00439,0.00608,63.9,68.0,10,452,.,.,13.47,0.00,0.00
15min,AgWx,beryljct,423,07JUL2020:08:15:00,74.8,13.04,77.2,76.9,76.3,77.2,75.0,16,19,14,0.474,26.6,29.5,24.2,14.05,13.1,183,11,16.9,0.00550,0.00794,63.8,67.9,10,504,.,.,13.46,0.00,0.00
15min,AgWx,beryljct,423,07JUL2020:08:30:00,76.9,13.17,77.5,77.6,77.3,77.6,77.0,15,18,13,0.523,26.5,29.9,23.6,13.85,14.7,183,11,20.2,0.00608,0.00881,63.8,67.8,9,553,.,.,13.46,0.00,0.00
15min,AgWx,beryljct,423,07JUL2020:08:45:00,78.4,13.38,77.8,78.6,78.0,78.6,77.3,16,18,14,0.553,28.2,31.6,25.4,11.44,15.1,189,9.9,20.7,0.00643,0.00922,63.9,67.7,10,601,.,.,13.45,0.00,0.00
15min,AgWx,beryljct,423,07JUL2020:09:00:00,79.6,13.53,78.5,79.0,78.7,79.1,78.2,16,20,15,0.577,29.2,33.5,26.6,15.83,15.9,187,13,20.9,0.00682,0.00975,63.9,67.6,10,647,.,.,13.45,0.00,0.00
15min,AgWx,beryljct,423,07JUL2020:09:15:00,80.6,13.63,79.9,79.3,79.2,79.7,78.4,17,20,15,0.575,30.7,34.2,27.3,14.34,15.4,192,9.3,21.5,0.00703,0.00991,64.0,67.5,9,692,.,.,13.45,0.00,0.00
15min,AgWx,beryljct,423,07JUL2020:09:30:00,81.4,13.73,79.9,80.2,79.7,80.2,79.0,17,20,15,0.562,30.4,35.1,27.2,17.01,15.9,192,9.8,21.5,0.00738,0.01037,64.1,67.4,9,735,.,.,13.45,0.00,0.00
15min,AgWx,beryljct,423,07JUL2020:09:45:00,82.1,13.89,80.2,80.7,80.2,80.7,79.3,17,19,15,0.568,31.0,34.2,28.2,14.95,15.7,186,12,21.2,0.00762,0.01063,64.3,67.3,9,775,.,.,13.45,0.00,0.00
15min,AgWx,beryljct,423,07JUL2020:10:00:00,82.6,13.95,82.0,81.2,80.5,81.2,79.7,17,20,14,0.612,31.0,36.4,26.9,15.52,14.6,187,17,22.1,0.00774,0.01063,64.5,67.2,9,813,.,.,13.44,0.00,0.00
15min,AgWx,beryljct,423,07JUL2020:10:15:00,83.4,13.92,80.3,80.6,81.2,81.8,80.5,17,19,14,0.590,31.5,35.2,27.9,15.72,14.3,190,15,21.8,0.00796,0.01085,64.7,67.2,9,848,.,.,13.44,0.00,0.00
15min,AgWx,beryljct,423,07JUL2020:10:30:00,84.0,13.87,82.6,81.2,81.6,82.6,80.6,17,19,15,0.662,32.0,35.9,29.2,12.69,15.4,188,14,22.6,0.00832,0.01138,65.1,67.2,9,881,.,.,13.44,0.00,0.00
15min,AgWx,beryljct,423,07JUL2020:10:45:00,84.2,13.96,81.4,81.6,81.4,81.9,80.7,17,21,14,0.622,32.5,36.6,28.6,13.2,17.2,197,11,26.4,0.00862,0.01188,65.4,67.1,9,911,.,.,13.44,0.00,0.00
15min,AgWx,beryljct,423,07JUL2020:11:00:00,84.4,13.86,81.9,81.9,81.8,82.5,81.4,17,21,14,0.657,32.2,37.6,28.4,13.33,15.6,195,11,23.8,0.00867,0.01178,65.9,67.1,9,940,.,.,13.44,0.00,0.00
15min,AgWx,beryljct,423,07JUL2020:11:15:00,84.8,13.86,82.2,83.5,82.6,83.7,81.9,16,20,13,0.593,31.6,36.7,28.0,20.43,16.1,189,11,25.6,0.00897,0.01220,66.3,67.1,9,964,.,.,13.44,0.00,0.00
15min,AgWx,beryljct,423,07JUL2020:11:30:00,85.1,13.83,82.1,81.4,82.5,83.8,80.9,17,20,14,0.596,33.0,37.7,28.6,11.29,15.0,208,15,20.0,0.00892,0.01200,66.9,67.1,9,982,.,.,13.44,0.00,0.00
15min,AgWx,beryljct,423,07JUL2020:11:45:00,85.2,13.9,83.7,82.8,83.0,84.0,81.5,17,20,14,0.712,33.7,38.4,28.4,16.62,13.3,199,16,19.1,0.00883,0.01167,67.4,67.1,9,998,.,.,13.44,0.00,0.00
15min,AgWx,beryljct,423,07JUL2020:12:00:00,85.5,13.88,81.4,82.0,82.9,83.6,82.0,16,21,14,0.641,32.3,38.0,28.1,14.56,14.8,206,12,22.9,0.00912,0.01221,68.1,67.1,9,1017,.,.,13.44,0.00,0.00
15min,AgWx,beryljct,423,07JUL2020:12:15:00,85.4,13.44,82.4,82.3,82.4,83.8,81.6,17,21,14,0.798,33.9,38.7,29.7,10.79,13.3,219,15,20.0,0.00894,0.01178,68.7,67.1,9,1027,.,.,13.44,0.00,0.00
15min,AgWx,beryljct,423,07JUL2020:12:30:00,85.9,13.43,84.7,83.9,83.5,84.4,82.4,16,21,12,0.518,32.5,39.7,25.1,11.55,13.4,199,18,22.6,0.00912,0.01205,69.4,67.2,9,1033,.,.,13.44,0.00,0.00
15min,AgWx,beryljct,423,07JUL2020:12:45:00,86.2,13.43,82.8,83.1,83.4,84.6,82.8,15,19,12,0.599,31.3,36.4,25.7,14.75,14.3,215,12,19.6,0.00927,0.01234,70.1,67.2,9,1038,.,.,13.44,0.01,0.00
15min,AgWx,beryljct,423,07JUL2020:13:00:00,86.6,13.5,83.5,83.5,84.3,86.2,83.0,15,19,11,0.554,31.7,38.0,25.6,11.05,12.3,208,14,19.2,0.00912,0.01196,70.8,67.4,10,1034,.,.,13.44,0.00,0.00
15min,AgWx,beryljct,423,07JUL2020:13:15:00,86.8,13.41,82.8,83.1,83.7,84.5,83.1,15,18,11,0.556,30.8,36.3,24.9,13.5,14.8,221,14,21.9,0.00933,0.01250,71.5,67.5,9,1032,.,.,13.44,0.00,0.00
15min,AgWx,beryljct,423,07JUL2020:13:30:00,86.8,13.41,84.4,84.5,84.1,85.0,83.1,14,19,10,0.546,30.2,36.9,21.8,10.94,14.5,210,14,21.2,0.00931,0.01247,72.2,67.6,9,1024,.,.,13.44,0.00,0.00
15min,AgWx,beryljct,423,07JUL2020:13:45:00,87.3,13.43,86.5,86.1,85.3,86.1,84.1,13,19,10,0.485,28.2,37.2,22.7,20.56,15.7,192,12,24.4,0.00952,0.01293,72.9,67.7,9,1007,.,.,13.44,0.00,0.00
15min,AgWx,beryljct,423,07JUL2020:14:00:00,87.5,13.39,84.3,84.8,85.4,86.5,84.5,13,16,10,0.602,29.6,33.4,23.7,14.23,15.2,202,14,26.2,0.00937,0.01272,73.6,67.9,9,991,.,.,13.43,0.00,0.00
15min,AgWx,beryljct,423,07JUL2020:14:15:00,87.4,13.39,84.6,85.3,84.5,85.3,83.8,15,18,12,0.625,31.0,36.4,26.3,15.48,15.7,216,14,20.7,0.00914,0.01245,74.2,68.0,10,970,.,.,13.44,0.01,0.00
15min,AgWx,beryljct,423,07JUL2020:14:30:00,87.4,13.34,84.8,85.1,85.1,85.9,84.2,14,17,11,0.544,30.3,35.8,25.1,13.88,15.3,200,11,24.1,0.00905,0.01235,74.9,68.2,9,948,.,.,13.44,0.00,0.00
15min,AgWx,beryljct,423,07JUL2020:14:45:00,87.6,13.35,84.1,84.4,84.6,85.2,83.8,15,18,13,0.593,31.7,36.2,28.1,15.5,14.9,211,13,22.5,0.00873,0.01191,75.4,68.4,9,920,.,.,13.44,0.00,0.00
15min,AgWx,beryljct,423,07JUL2020:15:00:00,88.0,13.35,84.8,84.9,85.0,86.1,84.3,14,17,12,0.564,31.0,35.2,27.3,16.55,14.8,205,12,22.8,0.00859,0.01178,76.0,68.6,9,889,.,.,13.44,0.00,0.00
15min,AgWx,beryljct,423,07JUL2020:15:15:00,88.4,13.33,85.2,85.7,85.5,86.6,84.4,14,18,10,0.583,31.2,36.0,23.7,15.63,13.7,201,14,22.4,0.00827,0.01131,76.5,68.8,9,856,.,.,13.44,0.00,0.00
15min,AgWx,beryljct,423,07JUL2020:15:30:00,89.1,13.33,86.2,86.5,85.9,86.7,84.9,14,17,11,0.526,31.2,36.9,25.4,12.36,13.7,201,15,22.7,0.00784,0.01088,76.9,69.0,9,784,.,.,13.44,0.00,0.00
15min,AgWx,beryljct,423,07JUL2020:15:45:00,89.7,13.32,87.5,86.9,86.7,87.5,85.8,12,16,10,0.579,28.8,34.4,24.5,9.93,14.3,186,13,20.3,0.00796,0.01116,77.4,69.1,9,771,.,.,13.44,0.00,0.00
15min,AgWx,beryljct,423,07JUL2020:16:00:00,90.1,13.31,84.5,85.6,86.3,87.1,85.2,12,15,10,0.583,27.9,32.4,23.9,13.85,15.2,190,14,22.4,0.00789,0.01121,77.7,69.4,10,742,.,.,13.44,0.01,0.00
15min,AgWx,beryljct,423,07JUL2020:16:15:00,90.0,13.33,85.3,86.1,85.7,86.6,85.0,13,17,10,0.488,29.1,35.7,23.9,15.28,13.6,202,13,20.0,0.00728,0.01029,78.1,69.6,10,699,.,.,13.44,0.00,0.00
15min,AgWx,beryljct,423,07JUL2020:16:30:00,89.9,13.31,84.7,85.6,86.0,86.8,84.8,12,15,10,0.517,28.1,33.4,23.9,12.17,14.0,197,14,19.8,0.00701,0.01010,78.3,69.8,10,638,.,.,13.44,0.00,0.00
15min,AgWx,beryljct,423,07JUL2020:16:45:00,89.6,13.32,85.1,85.9,85.5,86.1,84.5,12,15,10,0.557,28.0,32.2,23.8,9.36,13.9,205,13,20.5,0.00678,0.00982,78.5,70.0,10,612,.,.,13.44,0.00,0.00
15min,AgWx,beryljct,423,07JUL2020:17:00:00,89.5,13.33,85.3,86.0,86.3,87.0,85.8,12,14,10,0.504,27.3,31.9,24.0,20.3,15.9,191,14,22.2,0.00684,0.01019,78.7,70.2,10,561,.,.,13.44,0.00,0.00
15min,AgWx,beryljct,423,07JUL2020:17:15:00,89.3,13.35,85.9,86.2,85.9,86.4,85.3,12,14,10,0.537,27.5,31.0,23.9,11.66,16.3,194,11,23.2,0.00658,0.00998,78.7,70.4,10,510,.,.,13.44,0.00,0.00
15min,AgWx,beryljct,423,07JUL2020:17:30:00,89.1,13.34,86.1,85.6,86.1,86.5,85.5,12,15,11,0.476,27.6,32.4,25.3,16.9,15.1,192,9.5,20.7,0.00606,0.00924,78.8,70.6,10,462,.,.,13.44,0.00,0.00
15min,AgWx,beryljct,423,07JUL2020:17:45:00,88.8,13.28,85.7,85.9,85.7,86.0,85.1,12,15,11,0.475,27.3,31.7,24.5,13.13,15.2,192,12,23.6,0.00578,0.00896,78.8,70.8,10,416,.,.,13.44,0.00,0.00
15min,AgWx,beryljct,423,07JUL2020:18:00:00,88.6,13.16,85.3,84.9,85.7,86.2,84.8,12,14,11,0.471,26.9,31.1,24.8,13.61,13.0,192,14,19.6,0.00501,0.00782,78.7,71.0,9,364,.,.,13.44,0.00,0.00
15min,AgWx,beryljct,423,07JUL2020:18:15:00,88.0,13.09,84.8,85.1,84.8,85.3,84.2,12,13,11,0.463,25.8,28.9,23.8,10.33,12.7,201,14,18.2,0.00457,0.00729,78.6,71.1,10,312,.,.,13.44,0.00,0.00
15min,AgWx,beryljct,423,07JUL2020:18:30:00,87.6,13.09,84.0,85.3,85.0,85.4,84.1,11,14,10,0.462,25.0,29.9,22.7,10.48,13.0,194,14,20.3,0.00433,0.00710,78.5,71.3,10,262,.,.,13.44,0.00,0.00
15min,AgWx,beryljct,423,07JUL2020:18:45:00,87.1,13.05,85.2,84.9,84.8,85.3,84.4,11,12,9.8,0.403,23.6,27.5,21.9,20.34,14.6,190,10,21.6,0.00434,0.00734,78.4,71.4,10,215,.,.,13.44,0.00,0.00
15min,AgWx,beryljct,423,07JUL2020:19:00:00,86.5,13.03,82.7,83.3,83.9,84.9,83.3,11,13,10,0.461,24.2,27.0,22.5,9.51,12.4,197,11,18.4,0.00355,0.00616,78.2,71.6,10,167,.,.,13.44,0.00,0.00
15min,AgWx,beryljct,423,07JUL2020:19:15:00,85.6,13.03,83.2,83.1,83.0,83.5,82.2,11,14,10,0.423,23.8,28.0,21.8,13.99,10.6,195,9.5,15.7,0.00189,0.00249,78.0,71.7,10,124,.,.,13.44,0.00,0.00
15min,AgWx,beryljct,423,07JUL2020:19:30:00,84.7,13.04,82.3,81.8,82.8,83.7,81.8,11,12,9.9,0.423,22.8,25.3,21.1,10.79,11.2,194,9.2,16.5,0.00186,0.00244,77.7,71.8,10,82,.,.,13.45,0.00,0.00
15min,AgWx,beryljct,423,07JUL2020:19:45:00,83.3,13.01,80.7,80.5,81.2,82.2,80.5,11,12,10,0.411,22.7,24.3,20.0,8.05,8.8,193,9.8,13.3,0.00144,0.00197,77.4,71.9,10,46,.,.,13.45,0.00,0.00
15min,AgWx,beryljct,423,07JUL2020:20:00:00,81.7,12.99,77.5,77.5,79.3,80.8,77.4,12,13,11,0.415,22.6,23.7,20.8,6.577,7.3,192,7.6,11.1,0.00111,0.00157,77.1,71.9,10,12,.,.,13.45,0.00,0.00
15min,AgWx,beryljct,423,07JUL2020:20:15:00,79.5,12.99,75.4,76.1,76.6,77.9,75.5,13,14,12,0.415,22.6,23.4,21.4,7.103,6.9,187,6.1,9.5,0.00096,0.00137,76.8,72.0,10,2,.,.,13.45,0.00,0.00
15min,AgWx,beryljct,423,07JUL2020:20:30:00,77.5,12.98,74.9,75.0,75.7,76.4,74.7,14,15,13,0.409,22.4,23.3,21.9,6.555,7.1,186,6.2,9.3,0.00096,0.00136,76.5,72.1,10,0,.,.,13.45,0.00,0.00
15min,AgWx,beryljct,423,07JUL2020:20:45:00,75.8,12.98,74.1,73.3,73.8,75.0,72.7,15,16,14,0.406,23.1,24.0,21.7,4.582,5.8,184,6.5,7.4,0.00074,0.00108,76.1,72.1,10,0,.,.,13.45,0.00,0.00
15min,AgWx,beryljct,423,07JUL2020:21:00:00,73.9,12.97,64.7,65.0,71.1,74.0,65.0,17,26,13,0.546,24.0,30.6,20.2,5.502,5.2,169,11,7.6,0.00060,0.00089,75.8,72.1,10,0,.,.,13.45,0.00,0.00
15min,AgWx,beryljct,423,07JUL2020:21:15:00,71.3,12.97,65.4,65.5,64.9,65.8,63.1,24,28,21,0.470,27.1,29.4,24.8,4.779,4.8,175,8.9,6.1,0.00043,0.00064,75.4,72.1,10,0,.,.,13.46,0.00,0.00
15min,AgWx,beryljct,423,07JUL2020:21:30:00,69.2,12.97,69.7,69.7,67.0,69.7,65.2,20,23,18,0.455,24.1,26.7,22.5,5.765,5.8,180,11,8.6,0.00061,0.00088,75.0,72.1,10,0,.,.,13.45,0.00,0.00
15min,AgWx,beryljct,423,07JUL2020:21:45:00,69.2,12.95,76.0,75.5,73.0,75.6,69.6,16,19,14,0.452,24.4,25.6,22.8,8.07,7.6,193,7.7,11.4,0.00094,0.00130,74.6,72.1,10,0,.,.,13.46,0.00,0.00
15min,AgWx,beryljct,423,07JUL2020:22:00:00,71.0,12.94,78.1,77.8,77.0,78.3,75.4,14,15,13,0.432,24.1,25.3,23.2,8.81,9.8,199,8.0,15.4,0.00130,0.00174,74.3,72.1,10,0,.,.,13.45,0.00,0.00
15min,AgWx,beryljct,423,07JUL2020:22:15:00,72.9,12.95,76.4,76.1,77.2,77.9,76.1,14,15,13,0.459,24.4,25.7,23.1,8.4,8.7,198,7.8,12.1,0.00118,0.00161,74.0,72.1,10,0,.,.,13.45,0.00,0.00
15min,AgWx,beryljct,423,07JUL2020:22:30:00,73.5,12.95,73.8,74.9,75.0,76.1,74.3,16,17,15,0.478,25.8,26.7,24.4,5.261,6.5,205,8.0,9.2,0.00085,0.00121,73.6,72.1,10,0,.,.,13.45,0.00,0.00
15min,AgWx,beryljct,423,07JUL2020:22:45:00,73.2,12.94,65.9,69.6,73.1,74.8,69.6,18,25,16,0.622,26.9,32.5,25.5,3.924,5.4,208,15,7.5,0.00064,0.00095,73.3,72.0,10,0,.,.,13.45,0.00,0.00
15min,AgWx,bigpiney,439,07JUL2020:00:00:00,53.6,12.7,50.4,50.5,50.3,51.3,49.2,52,55,50,0.651,33.5,33.9,33.1,2.258,4.0,303,19,5.5,0.00007,0.00013,53.5,50.2,55,0,0,0.0,7.85,0.00,0.00
15min,AgWx,bigpiney,439,07JUL2020:00:15:00,53.7,12.69,53.9,53.5,51.9,53.6,50.5,48,53,42,0.586,32.5,34.0,30.9,3.705,2.3,290,15,4.4,-0.00005,-0.00004,53.5,50.2,55,0,0,0.0,7.85,0.00,0.00
15min,AgWx,bigpiney,439,07JUL2020:00:30:00,53.7,12.69,49.6,49.5,51.7,53.7,48.6,50,63,42,0.733,33.7,36.7,31.0,2.455,2.5,238,72,4.9,-0.00004,-0.00002,53.4,50.2,55,0,0,0.0,7.85,0.00,0.00
15min,AgWx,bigpiney,439,07JUL2020:00:45:00,53.5,12.68,49.1,49.4,48.5,50.2,47.4,67,71,59,0.767,37.9,39.0,36.2,1.293,3.1,180,63,6.1,-0.00005,-0.00004,53.4,50.2,55,0,0,0.0,7.85,0.00,0.00
15min,AgWx,bigpiney,439,07JUL2020:01:00:00,53.1,12.67,48.0,47.6,49.0,53.4,47.4,65,72,44,0.795,37.8,39.1,31.9,1.556,3.7,214,34,8.6,-0.00001,0.00001,53.3,50.2,55,0,0,0.0,7.85,0.00,0.00
15min,AgWx,bigpiney,439,07JUL2020:01:15:00,52.7,12.66,47.1,47.2,47.4,48.4,46.9,70,73,67,0.749,38.1,38.8,37.1,4.319,4.1,218,16,6.7,-0.00002,-0.00000,53.3,50.2,55,0,0,0.0,7.85,0.00,0.00
15min,AgWx,bigpiney,439,07JUL2020:01:30:00,52.1,12.66,45.6,46.0,46.8,47.2,46.0,68,70,66,0.712,36.9,37.4,35.8,5.48,3.9,220,15,6.1,-0.00002,-0.00001,53.2,50.2,55,0,0,0.0,7.85,0.00,0.00
15min,AgWx,bigpiney,439,07JUL2020:01:45:00,51.4,12.65,46.5,46.7,46.9,48.1,45.6,64,69,58,0.710,35.3,36.0,34.2,2.214,3.7,226,6.9,5.2,-0.00001,0.00002,53.2,50.2,55,0,0,0.0,7.85,0.00,0.00
15min,AgWx,bigpiney,439,07JUL2020:02:00:00,50.8,12.64,44.4,44.6,45.6,46.6,44.4,70,75,65,0.738,36.4,37.2,35.3,1.995,1.4,336,32,3.1,-0.00018,-0.00024,53.1,50.2,55,0,0,0.0,7.85,0.00,0.00
15min,AgWx,bigpiney,439,07JUL2020:02:15:00,50.1,12.63,45.8,44.6,44.5,45.6,44.0,74,79,64,0.697,36.6,38.1,34.1,2.477,1.2,274,39,3.2,-0.00021,-0.00028,53.1,50.2,55,0,0,0.0,7.85,0.00,0.00
15min,AgWx,bigpiney,439,07JUL2020:02:30:00,49.3,12.61,42.0,41.8,42.6,44.8,41.7,77,81,69,0.717,36.0,36.6,35.3,4.669,3.4,210,7.8,4.9,-0.00008,-0.00009,53.0,50.2,55,0,0,0.0,7.85,0.00,0.00
15min,AgWx,bigpiney,439,07JUL2020:02:45:00,48.5,12.61,42.8,42.6,42.0,42.6,41.8,80,81,79,0.734,36.3,36.9,36.0,0,2.3,229,10,4.7,-0.00014,-0.00017,53.0,50.2,55,0,0,0.0,7.85,0.00,0.00
15min,AgWx,bigpiney,439,07JUL2020:03:00:00,47.9,12.58,41.3,41.4,42.6,43.9,41.4,79,82,73,0.721,36.4,36.9,35.7,1.732,1.6,202,25,3.3,-0.00018,-0.00024,52.9,50.3,55,0,0,0.0,7.85,0.00,0.00
15min,AgWx,bigpiney,439,07JUL2020:03:15:00,47.5,12.59,42.5,42.8,42.3,43.6,41.3,79,82,74,0.742,36.4,36.9,35.6,1.228,0.9,171,42,2.1,-0.00022,-0.00032,52.9,50.2,55,0,0,0.0,7.85,0.00,0.00
15min,AgWx,bigpiney,439,07JUL2020:03:30:00,47.4,12.57,43.7,43.4,42.7,43.4,42.1,83,85,80,0.793,38.0,38.8,36.8,1.995,1.1,167,19,2.7,-0.00022,-0.00030,52.8,50.2,55,0,0,0.0,7.85,0.00,0.00
15min,AgWx,bigpiney,439,07JUL2020:03:45:00,47.5,12.56,44.5,44.4,44.4,45.0,43.4,83,84,80,0.830,39.4,40.3,38.6,2.17,2.6,167,24,3.5,-0.00014,-0.00017,52.8,50.3,55,0,0,0.0,7.85,0.00,0.00
15min,AgWx,bigpiney,439,07JUL2020:04:00:00,47.8,12.55,45.8,45.5,45.0,45.5,44.4,81,84,80,0.827,39.6,40.1,39.2,0.329,1.9,163,18,2.5,-0.00017,-0.00022,52.7,50.2,55,0,0,0.0,7.85,0.00,0.00
15min,AgWx,bigpiney,439,07JUL2020:04:15:00,48.0,12.55,47.3,47.9,46.4,48.4,45.4,73,80,60,0.726,38.2,39.8,35.1,0.745,1.4,195,24,3.7,-0.00019,-0.00025,52.6,50.2,55,0,0,0.0,7.85,0.00,0.00
15min,AgWx,bigpiney,439,07JUL2020:04:30:00,48.1,12.54,45.5,45.3,46.1,47.9,45.3,76,80,64,0.795,38.8,39.9,36.5,1.206,1.3,307,43,3.6,-0.00020,-0.00027,52.6,50.2,55,0,0,0.0,7.85,0.00,0.00
15min,AgWx,bigpiney,439,07JUL2020:04:45:00,48.1,12.53,46.4,46.5,45.9,46.6,45.4,72,77,65,0.704,37.2,38.7,35.3,0.899,1.4,299,13,4.8,-0.00018,-0.00025,52.5,50.2,55,1,0,0.0,7.85,0.00,0.00
15min,AgWx,bigpiney,439,07JUL2020:05:00:00,47.9,12.53,44.6,44.9,45.8,46.6,44.9,67,71,64,0.724,35.6,36.6,34.6,3.661,2.4,257,38,4.3,-0.00009,-0.00011,52.5,50.2,55,5,0,0.0,7.85,0.00,0.00
15min,AgWx,bigpiney,439,07JUL2020:05:15:00,47.8,12.54,45.8,45.3,44.8,45.4,44.5,71,74,70,0.747,36.1,37.1,35.6,0.877,2.2,231,13,5.1,-0.00028,-0.00021,52.4,50.2,55,20,0,0.0,7.85,0.00,0.00
15min,AgWx,bigpiney,439,07JUL2020:05:30:00,47.7,12.57,44.4,44.7,45.6,46.0,44.7,73,79,71,0.794,37.5,38.6,36.9,2.477,2.1,234,14,3.2,-0.00009,-0.00001,52.3,50.2,55,34,0,0.0,7.85,0.00,0.00
15min,AgWx,bigpiney,439,07JUL2020:05:45:00,47.8,12.62,47.0,46.6,45.1,46.6,44.3,79,82,75,0.809,39.0,40.1,38.2,1.622,1.8,230,25,3.0,0.00002,0.00008,52.3,50.2,55,87,0,0.0,7.85,0.00,0.00
15min,AgWx,bigpiney,439,07JUL2020:06:00:00,48.3,12.65,47.8,47.4,46.9,47.4,46.7,77,79,74,0.874,39.9,41.1,38.9,2.762,2.4,200,11,3.7,0.00024,0.00034,52.2,50.2,55,91,0,0.0,7.85,0.00,0.00
15min,AgWx,bigpiney,439,07JUL2020:06:15:00,49.3,12.8,49.5,49.4,48.7,49.4,47.5,77,80,76,0.917,42.0,43.2,41.2,2.324,2.0,188,16,3.5,0.00045,0.00056,52.2,50.2,55,154,0,0.0,7.85,0.00,0.00
15min,AgWx,bigpiney,439,07JUL2020:06:30:00,50.4,12.76,52.3,51.8,50.3,51.8,49.4,77,79,73,0.959,43.2,44.8,41.9,1.885,1.3,232,52,2.9,0.00064,0.00074,52.1,50.2,55,174,0,0.0,7.85,0.00,0.00
15min,AgWx,bigpiney,439,07JUL2020:06:45:00,52.1,12.73,54.5,54.4,53.4,54.5,51.9,71,75,69,0.992,44.2,45.1,43.2,0,0.1,315,23,1.7,0.00091,0.00098,52.0,50.2,55,227,0,0.0,7.85,0.00,0.00
15min,AgWx,bigpiney,439,07JUL2020:07:00:00,54.3,12.81,56.1,56.3,55.6,56.4,54.4,57,69,50,0.811,40.5,44.8,37.6,1.184,1.4,138,21,3.0,0.00152,0.00173,52.0,50.2,55,322,0,0.0,7.85,0.00,0.00
15min,AgWx,bigpiney,439,07JUL2020:07:15:00,56.3,12.8,55.8,55.9,56.1,56.6,55.8,57,62,51,0.908,41.0,43.2,38.1,1.447,1.0,84,24,2.0,0.00120,0.00136,52.0,50.2,55,224,0,0.0,7.85,0.00,0.00
15min,AgWx,bigpiney,439,07JUL2020:07:30:00,57.9,12.87,56.5,56.7,56.8,57.4,55.8,62,66,59,0.962,43.8,45.6,42.3,3.223,1.6,76,35,3.7,0.00179,0.00202,51.9,50.2,55,339,0,0.0,7.85,0.00,0.00
15min,AgWx,bigpiney,439,07JUL2020:07:45:00,59.4,13.21,58.4,58.1,57.3,58.2,56.6,60,64,53,0.873,43.6,45.0,40.8,3.376,2.1,118,20,4.2,0.00236,0.00266,51.8,50.2,55,444,0,0.0,7.85,0.00,0.00
15min,AgWx,bigpiney,439,07JUL2020:08:00:00,60.9,13.46,60.8,59.5,58.8,59.6,58.1,55,58,51,1.010,42.5,45.1,40.7,0,1.3,92,22,3.4,0.00270,0.00299,51.8,50.1,55,494,0,0.0,7.85,0.00,0.00
15min,AgWx,bigpiney,439,07JUL2020:08:15:00,62.7,13.64,62.7,63.3,61.6,63.3,59.7,55,61,50,1.056,45.1,47.4,43.4,0,1.7,111,20,3.7,0.00312,0.00347,51.7,50.1,55,541,0,0.0,7.85,0.00,0.00
15min,AgWx,bigpiney,439,07JUL2020:08:30:00,64.8,14.05,65.0,65.5,64.7,65.7,63.2,53,57,49,1.057,47.1,49.9,44.7,2.938,1.0,291,21,3.4,0.00350,0.00383,51.7,50.1,55,585,0,0.0,7.85,0.00,0.00
15min,AgWx,bigpiney,439,07JUL2020:08:45:00,67.1,14.29,71.3,71.4,68.7,71.4,65.3,42,51,34,1.097,44.8,47.5,39.9,2.433,2.8,228,34,4.9,0.00407,0.00466,51.6,50.1,55,629,0,0.0,7.85,0.00,0.00
15min,AgWx,bigpiney,439,07JUL2020:09:00:00,69.6,14.12,73.7,73.5,72.6,73.5,71.3,31,41,24,0.769,40.2,46.6,33.9,5.765,3.5,226,21,7.1,0.00462,0.00543,51.6,50.1,55,671,0,0.0,7.85,0.00,0.00
15min,AgWx,bigpiney,439,07JUL2020:09:15:00,71.7,14.1,73.6,73.8,73.4,73.8,73.1,26,30,23,0.738,36.3,40.1,33.1,9.14,9.8,232,15,15.0,0.00564,0.00736,51.6,50.1,55,710,0,0.0,7.85,0.00,0.00